Regional Weather Roundup
Issued by NWS Goodland, KS

Home | Current Version | Previous Version | Text Only | Print | Product List | Glossary Off
Versions: 1 2 3 4 5 6 7 8 9 10 11 12 13 14 15 16 17 18 19 20 21 22 23 24 25 26 27 28 29 30 31 32 33 34 35 36 37 38 39 40 41 42 43 44 45 46 47 48 49 50

000
ASUS43 KGLD 251259
RWRGLD

GOODLAND FORECAST AREA HOURLY WEATHER ROUNDUP
NATIONAL WEATHER SERVICE GOODLAND KS
700 AM MDT SAT OCT 25 2014

...OFFICIAL OBSERVATIONS...

CITY           SKY/WX    TMP DP  RH WIND       PRES   REMARKS
GOODLAND KS    CLEAR     45  33  63 W7        30.13S
HILL CITY KS   CLEAR     44  38  79 W3        30.07R
IMPERIAL NEB   CLEAR     41  32  70 N3        30.13R
MCCOOK NEB     CLEAR     39  34  82 W3        30.10R
AKRON CO       CLEAR     44  30  57 W15       30.17R
BURLINGTON CO  CLEAR     43  33  68 W8        30.14R
LIMON CO       CLEAR     39  28  64 CALM      30.23R
$$

...UNOFFICIAL OBSERVATIONS...

CITY           SKY/WX    TMP DP  RH WIND       PRES   REMARKS
COLBY KS       CLEAR     45  37  76 W3        30.12R
NORTON KS      CLEAR     39  34  81 W8        30.06S
SHARON SPRINGS   N/A     49  38  67 W5          N/A
KIT CARSON CO    N/A     43  33  69 CALM        N/A
YUMA CO          N/A     42  30  61 W7          N/A
$$



USA.gov is the U.S. government's official web portal to all federal, state and local government web resources and services.